Location: Cardiff
(53.7833°N, 113.6000°W)
Time: 20:51:31
(UTC+00:00)

Oscar 19 - Pass Details

Date: 11 December 2023
Orbit: 771 x 789 km, 98.9° (Epoch: 04 March)

Event Time Altitude Azimuth Distance (km) Brightness Sun altitude
Rises 23:59:30 0° 190° (S) 3,235 14.5 -6.4°
Reaches altitude 10° 00:02:00 10° 199° (SSW) 2,314 13.9 -6.7°
Maximum altitude 00:06:37 34° 264° (W) 1,257 12.5 -7.3°
Drops below altitude 10° 00:11:18 10° 329° (NNW) 2,336 13.2 -7.9°
Sets 00:13:50 0° 339° (NNW) 3,271 13.8 -8.2°
